Location: �clusier
(49.9361°N, 2.7869°E)
Time: 06:59:19
(UTC+00:00)

Cosmos 1346 Rocket - Pass Details

Date: 16 June 2021
Orbit: 526 x 551 km, 81.2° (Epoch: 31 July)

Event Time Altitude Azimuth Distance (km) Brightness Sun altitude
Exits shadow 22:18:25 24° 153° (SSE) 1,151 3.8 -13.9°
Maximum altitude 22:20:23 43° 96° (E) 775 3.3 -14.1°
Drops below altitude 10° 22:24:13 10° 24° (NNE) 1,832 6.1 -14.3°
Sets 22:26:28 0° 18° (NNE) 2,734 7.3 -14.4°
